KD5OH Weather Reports


Display with metric or nautical units.
time (UTC)temp
F
wind
direction
speed
MPH
gust
MPH
rain 1hr
in
rain 24hr
in
rain mn
in
humidity
%
barometer
mb
20260902064627 74 249 0.0 1.0 0.00 0.00 0.00 45 1019.2
20260902063122 75 123 0.0 1.0 0.00 0.00 0.00 43 1019.2
20260902061634 75 131 0.0 1.0 0.00 0.00 0.00 43 1019.2
20260902060148 77 144 0.0 1.0 0.00 0.00 0.00 41 1019.2
20260902054622 77 147 0.0 3.0 0.00 0.00 0.00 41 1019.1
20260902053133 76 110 1.0 3.0 0.00 0.00 0.00 43 1019.3
20260902051628 76 208 0.0 2.0 0.00 0.00 0.00 43 1019.6
20260902050201 76 212 0.0 2.0 0.00 0.00 0.00 42 1019.6
20260902044635 76 218 0.0 2.0 0.00 0.01 0.00 42 1019.6
20260902043148 77 219 0.0 0.0 0.00 0.01 0.00 40 1019.5
20260902041658 77 244 0.0 0.0 0.00 0.01 0.00 40 1019.5
20260902040135 78 242 0.0 3.0 0.00 0.01 0.00 39 1019.3
20260902034625 80 106 0.0 1.0 0.00 0.02 0.00 36 1018.9
20260902033135 80 140 0.0 4.0 0.00 0.02 0.00 35 1018.8
20260902031648 79 128 1.0 3.0 0.00 0.02 0.00 37 1018.5
20260902030138 80 23 0.0 0.0 0.00 0.02 0.00 35 1018.0
20260902024648 81 23 0.0 1.0 0.00 0.02 0.00 33 1017.9
20260902023143 80 28 1.0 2.0 0.00 0.02 0.00 35 1017.8
20260902021633 81 285 0.0 1.0 0.00 0.02 0.00 34 1017.5
20260902020148 82 280 0.0 2.0 0.00 0.02 0.00 33 1017.3
20260902014640 84 79 0.0 0.0 0.00 0.02 0.00 31 1017.0
20260902013131 87 79 0.0 0.0 0.00 0.02 0.00 28 1016.8
20260902011624 88 78 0.0 0.0 0.00 0.02 0.00 26 1016.7
20260902010135 88 75 0.0 0.0 0.00 0.02 0.00 26 1016.8
20260902004630 89 72 0.0 2.0 0.00 0.02 0.00 25 1016.8
20260902003141 89 64 1.0 3.0 0.00 0.02 0.00 24 1016.8
20260902001651 90 99 2.0 3.0 0.00 0.02 0.00 24 1016.9
20260902000144 91 19 1.0 4.0 0.00 0.02 0.00 23 1017.0
20260901234634 92 274 0.0 3.0 0.00 0.02 0.00 23 1017.0
20260901233123 92 160 0.0 2.0 0.00 0.02 0.00 23 1016.9
20260901231639 92 261 1.0 2.0 0.00 0.02 0.00 23 1016.9
20260901230129 91 326 1.0 5.0 0.00 0.02 0.00 23 1017.0
20260901224643 92 309 2.0 6.0 0.00 0.02 0.00 22 1017.1
20260901223133 92 336 1.0 5.0 0.00 0.02 0.00 23 1017.4
20260901221622 92 102 0.0 8.0 0.00 0.02 0.00 22 1017.5
20260901220135 92 319 4.0 7.0 0.00 0.02 0.00 22 1017.5
20260901214626 92 35 5.0 10.0 0.00 0.02 0.00 23 1017.8
20260901213136 92 4 2.0 4.0 0.00 0.02 0.00 24 1017.9
20260901211630 91 352 2.0 7.0 0.00 0.02 0.00 24 1018.2
20260901210142 91 317 1.0 8.0 0.00 0.02 0.00 24 1018.5
20260901204630 91 329 4.0 7.0 0.00 0.02 0.00 25 1018.6
20260901203146 90 293 2.0 11.0 0.00 0.02 0.00 25 1018.9
20260901201635 90 231 5.0 10.0 0.00 0.02 0.00 25 1019.1
20260901200151 90 289 5.0 12.0 0.00 0.02 0.00 27 1019.4
20260901194642 90 256 4.0 12.0 0.00 0.02 0.00 26 1019.6
20260901193132 89 279 1.0 9.0 0.00 0.02 0.00 27 1019.7
20260901191627 88 162 0.0 6.0 0.00 0.02 0.00 28 1020.1
20260901190136 86 310 5.0 10.0 0.00 0.02 0.00 31 1020.2
20260901184627 87 290 5.0 9.0 0.00 0.02 0.00 31 1020.3
20260901183123 87 239 0.0 8.0 0.00 0.02 0.00 33 1020.4
20260901181635 86 256 3.0 7.0 0.00 0.02 0.00 35 1020.8
20260901180130 85 319 0.0 5.0 0.00 0.02 0.00 35 1020.9
20260901174621 84 333 3.0 6.0 0.00 0.02 0.00 37 1021.2
20260901173137 83 314 1.0 7.0 0.00 0.02 0.00 40 1021.4
20260901171628 81 319 3.0 7.0 0.00 0.02 0.00 43 1021.6
20260901170201 81 318 1.0 6.0 0.00 0.02 0.00 45 1021.2
20260901164634 79 9 2.0 6.0 0.00 0.02 0.00 45 1021.3
20260901163127 78 301 0.0 2.0 0.00 0.02 0.00 50 1021.3
20260901161621 76 312 0.0 2.0 0.00 0.02 0.00 54 1021.2
20260901160153 76 313 0.0 2.0 0.00 0.02 0.00 56 1021.1
20260901154628 75 270 0.0 3.0 0.00 0.02 0.00 55 1021.0
20260901153140 75 215 0.0 1.0 0.00 0.02 0.00 57 1020.9
20260901151653 74 284 0.0 1.0 0.00 0.02 0.00 60 1020.8
20260901150127 73 295 0.0 3.0 0.00 0.02 0.00 62 1020.8
20260901144659 72 265 1.0 5.0 0.00 0.02 0.00 60 1020.9
20260901143150 74 233 2.0 3.0 0.00 0.02 0.00 57 1020.7
20260901141625 72 156 0.0 2.0 0.00 0.02 0.00 61 1020.7
20260901140135 71 123 1.0 2.0 0.00 0.02 0.00 64 1020.5
20260901134630 68 184 0.0 0.0 0.00 0.02 0.00 70 1020.4
20260901133142 64 184 0.0 0.0 0.00 0.02 0.00 75 1020.3
20260901131653 63 184 0.0 0.0 0.00 0.02 0.00 75 1020.2
20260901130129 63 184 0.0 0.0 0.00 0.02 0.00 75 1020.1
20260901124700 63 184 0.0 0.0 0.00 0.02 0.00 75 1020.0
20260901123155 63 184 0.0 0.0 0.00 0.02 0.00 74 1019.7
20260901121624 64 126 0.0 0.0 0.00 0.02 0.00 73 1019.4
20260901120122 64 126 0.0 0.0 0.00 0.02 0.00 73 1019.3
20260901113130 65 126 0.0 0.0 0.00 0.02 0.00 72 1019.1
20260901111622 65 126 0.0 0.0 0.00 0.02 0.00 72 1019.0
20260901110134 65 126 0.0 0.0 0.00 0.02 0.00 72 1019.1
20260901104625 66 126 0.0 0.0 0.00 0.02 0.00 71 1019.1
20260901103122 66 126 0.0 0.0 0.00 0.02 0.00 71 1019.1
20260901101635 66 126 0.0 0.0 0.00 0.02 0.00 72 1019.2
20260901100130 66 130 0.0 3.0 0.00 0.02 0.00 71 1019.1
20260901094641 66 251 0.0 1.0 0.00 0.02 0.00 72 1019.1
20260901093137 66 249 0.0 0.0 0.00 0.02 0.00 72 1018.9
20260901091630 66 246 0.0 1.0 0.00 0.02 0.00 71 1018.8
20260901090141 68 283 0.0 0.0 0.00 0.02 0.00 69 1018.7
20260901084637 68 266 1.0 3.0 0.00 0.02 0.00 68 1018.9
20260901083129 70 301 0.0 0.0 0.00 0.02 0.00 65 1018.9
20260901081624 71 301 0.0 0.0 0.00 0.02 0.00 61 1019.1
20260901080136 71 301 0.0 0.0 0.00 0.02 0.00 64 1019.2
20260901074628 71 301 0.0 0.0 0.00 0.02 0.00 62 1019.0
20260901073142 72 301 0.0 0.0 0.00 0.02 0.00 59 1019.3
20260901071633 72 301 0.0 0.0 0.00 0.02 0.00 59 1019.4
20260901070130 72 301 0.0 0.0 0.00 0.02 0.00 57 1019.2